,,,PA_Meas_PMT16A,,PR_Meas_QMR101_102,,RH_Meas_QMH101,,SR_Meas_QMS101,,TA_Meas_QMH101,,GenWind,,GenWind,
date,time,status,PA,status,PR,status,RH,status,SR,status,TA,status,DirAvg,status,SpdAvg,
2011-05-17, 00:00:04,VALID,1002.57,VALID,0,VALID,90.0906,VALID,0,VALID,24.7941,VALID,32,VALID,1.40195,
2011-05-17, 00:01:04,VALID,1002.57,VALID,0,VALID,90.2508,VALID,0,VALID,24.7746,VALID,31,VALID,1.07187,
2011-05-17, 00:02:04,VALID,1002.51,VALID,0,VALID,90.4263,VALID,0,VALID,24.7356,VALID,49,VALID,1.31758,
2011-05-17, 00:03:04,VALID,1002.48,VALID,0,VALID,90.6475,VALID,0,VALID,24.716,VALID,55,VALID,1.55938,
2011-05-17, 00:04:04,VALID,1002.49,VALID,0,VALID,90.8077,VALID,0,VALID,24.6965,VALID,50,VALID,1.1332,
2011-05-17, 00:05:04,VALID,1002.43,VALID,0,VALID,90.8688,VALID,0,VALID,24.638,VALID,41,VALID,1.07813,
2011-05-17, 00:06:04,VALID,1002.43,VALID,0,VALID,90.968,VALID,0,VALID,24.638,VALID,41,VALID,1.21953,
2011-05-17, 00:07:04,VALID,1002.4,VALID,0,VALID,90.8917,VALID,0,VALID,24.5989,VALID,50,VALID,1.29062,
2011-05-17, 00:08:04,VALID,1002.34,VALID,0,VALID,90.7238,VALID,0,VALID,24.5989,VALID,32,VALID,1.23008,
2011-05-17, 00:09:04,VALID,1002.34,VALID,0,VALID,90.5026,VALID,0,VALID,24.5794,VALID,33,VALID,0.990234,
2011-05-17, 00:10:04,VALID,1002.34,VALID,0,VALID,90.266,VALID,0,VALID,24.5599,VALID,46,VALID,0.973047,
2011-05-17, 00:11:04,VALID,1002.34,VALID,0,VALID,89.9303,VALID,0,VALID,24.5404,VALID,43,VALID,1.24844,
2011-05-17, 00:12:04,VALID,1002.34,VALID,0,VALID,89.6633,VALID,0,VALID,24.5404,VALID,32,VALID,0.759375,
2011-05-17, 00:13:04,VALID,1002.33,VALID,0,VALID,89.4039,VALID,0,VALID,24.4995,VALID,29,VALID,0.805469,
2011-05-17, 00:14:04,VALID,1002.4,VALID,0,VALID,89.2132,VALID,0,VALID,24.48,VALID,24,VALID,0.678516,
2011-05-17, 00:15:04,VALID,1002.41,VALID,0,VALID,89.2284,VALID,0,VALID,24.4818,VALID,24,VALID,0.7625,
2011-05-17, 00:16:04,VALID,1002.43,VALID,0,VALID,89.2589,VALID,0,VALID,24.4623,VALID,24,VALID,0.649609,
2011-05-17, 00:17:04,VALID,1002.47,VALID,0,VALID,89.1292,VALID,0.112286,VALID,24.4214,VALID,24,VALID,1.10938,
2011-05-17, 00:18:04,VALID,1002.5,VALID,0,VALID,89.0071,VALID,0,VALID,24.4233,VALID,24,VALID,0.824609,
2011-05-17, 00:19:04,VALID,1002.48,VALID,0,VALID,88.9232,VALID,0,VALID,24.4233,VALID,24,VALID,0.635156,
2011-05-17, 00:20:04,VALID,1002.49,VALID,0,VALID,88.8851,VALID,0,VALID,24.4037,VALID,24,VALID,0.905469,
2011-05-17, 00:21:04,VALID,1002.46,VALID,0,VALID,88.8622,VALID,0,VALID,24.4037,VALID,35,VALID,0.944922,
2011-05-17, 00:22:04,VALID,1002.41,VALID,0,VALID,88.8011,VALID,0,VALID,24.3842,VALID,27,VALID,0.956641,
2011-05-17, 00:23:04,VALID,1002.43,VALID,0,VALID,88.824,VALID,0,VALID,24.3647,VALID,27,VALID,0.653906,
2011-05-17, 00:24:04,VALID,1002.43,VALID,0,VALID,88.908,VALID,0,VALID,24.3452,VALID,27,VALID,0.741406,
2011-05-17, 00:25:04,VALID,1002.4,VALID,0,VALID,89.03,VALID,0,VALID,24.3238,VALID,27,VALID,0.729297,
2011-05-17, 00:26:04,VALID,1002.42,VALID,0,VALID,89.1063,VALID,0,VALID,24.3257,VALID,8,VALID,0.746094,
2011-05-17, 00:27:04,VALID,1002.39,VALID,0,VALID,89.1597,VALID,0,VALID,24.3257,VALID,1,VALID,0.819922,
2011-05-17, 00:28:04,VALID,1002.39,VALID,0,VALID,89.236,VALID,0,VALID,24.3043,VALID,350,VALID,0.599219,
2011-05-17, 00:29:04,VALID,1002.37,VALID,0,VALID,89.4115,VALID,0,VALID,24.3257,VALID,350,VALID,0.384766,
2011-05-17, 00:30:04,VALID,1002.35,VALID,0,VALID,89.4497,VALID,0,VALID,24.3257,VALID,350,VALID,0.0195313,
2011-05-17, 00:31:04,VALID,1002.37,VALID,0,VALID,89.4344,VALID,0,VALID,24.3257,VALID,350,VALID,0,
2011-05-17, 00:32:04,VALID,1002.36,VALID,0,VALID,89.3657,VALID,0,VALID,24.3452,VALID,350,VALID,0,
2011-05-17, 00:33:04,VALID,1002.38,VALID,0,VALID,89.2894,VALID,0,VALID,24.3257,VALID,350,VALID,0,
2011-05-17, 00:34:04,VALID,1002.4,VALID,0,VALID,89.2284,VALID,0,VALID,24.3452,VALID,350,VALID,0,
2011-05-17, 00:35:05,VALID,1002.43,VALID,0,VALID,89.2666,VALID,0,VALID,24.3647,VALID,312,VALID,0.605859,
2011-05-17, 00:36:05,VALID,1002.49,VALID,0,VALID,89.3581,VALID,0,VALID,24.4623,VALID,256,VALID,1.11797,
2011-05-17, 00:37:05,VALID,1002.45,VALID,0,VALID,89.2742,VALID,0,VALID,24.5209,VALID,259,VALID,0.876953,
2011-05-17, 00:38:05,VALID,1002.45,VALID,0,VALID,89.0529,VALID,0,VALID,24.5599,VALID,259,VALID,0.757422,
2011-05-17, 00:39:05,VALID,1002.49,VALID,0,VALID,88.9156,VALID,0,VALID,24.558,VALID,288,VALID,0.5625,
2011-05-17, 00:40:05,VALID,1002.45,VALID,0,VALID,88.7706,VALID,0,VALID,24.5775,VALID,309,VALID,0.618359,
2011-05-17, 00:41:05,VALID,1002.41,VALID,0,VALID,88.6943,VALID,0,VALID,24.6184,VALID,340,VALID,0.942187,
2011-05-17, 00:42:05,VALID,1002.42,VALID,0,VALID,88.412,VALID,0,VALID,24.6184,VALID,320,VALID,0.979297,
2011-05-17, 00:43:05,VALID,1002.44,VALID,0,VALID,88.4426,VALID,0,VALID,24.6184,VALID,310,VALID,0.400781,
2011-05-17, 00:44:05,VALID,1002.47,VALID,0,VALID,88.5875,VALID,0,VALID,24.638,VALID,290,VALID,0.967578,
2011-05-17, 00:45:05,VALID,1002.46,VALID,0,VALID,88.1832,VALID,0,VALID,24.6575,VALID,290,VALID,0.570703,
2011-05-17, 00:46:05,VALID,1002.43,VALID,0,VALID,87.9848,VALID,0,VALID,24.677,VALID,278,VALID,0.589063,
2011-05-17, 00:47:05,VALID,1002.41,VALID,0,VALID,87.9543,VALID,0,VALID,24.6751,VALID,282,VALID,0.705078,
2011-05-17, 00:48:05,VALID,1002.36,VALID,0,VALID,87.939,VALID,0,VALID,24.677,VALID,285,VALID,0.967969,
2011-05-17, 00:49:05,VALID,1002.33,VALID,0,VALID,87.7711,VALID,0,VALID,24.6751,VALID,252,VALID,0.303906,
2011-05-17, 00:50:05,VALID,1002.33,VALID,0,VALID,87.8474,VALID,0,VALID,24.716,VALID,288,VALID,0.597656,
2011-05-17, 00:51:05,VALID,1002.35,VALID,0,VALID,87.9619,VALID,0,VALID,24.716,VALID,255,VALID,0.703516,
2011-05-17, 00:52:05,VALID,1002.35,VALID,0,VALID,87.9924,VALID,0,VALID,24.7337,VALID,256,VALID,1.36133,
2011-05-17, 00:53:05,VALID,1002.36,VALID,0,VALID,88,VALID,0.112286,VALID,24.7727,VALID,243,VALID,1.33594,
2011-05-17, 00:54:05,VALID,1002.37,VALID,0,VALID,87.8856,VALID,0,VALID,24.7941,VALID,250,VALID,0.523828,
2011-05-17, 00:55:05,VALID,1002.39,VALID,0,VALID,87.9085,VALID,0,VALID,24.7727,VALID,254,VALID,1.13633,
2011-05-17, 00:56:05,VALID,1002.4,VALID,0,VALID,87.8627,VALID,0,VALID,24.8117,VALID,247,VALID,1.16094,
2011-05-17, 00:57:05,VALID,1002.4,VALID,0,VALID,87.7635,VALID,0,VALID,24.8508,VALID,233,VALID,0.926172,
2011-05-17, 00:58:05,VALID,1002.4,VALID,0,VALID,87.6109,VALID,0,VALID,24.8722,VALID,229,VALID,1.16719,
2011-05-17, 00:59:05,VALID,1002.43,VALID,0,VALID,87.5117,VALID,0,VALID,24.8722,VALID,231,VALID,0.865625,
2011-05-17, 01:00:05,VALID,1002.41,VALID,0,VALID,87.4889,VALID,0,VALID,24.8508,VALID,208,VALID,0.824219,
2011-05-17, 01:01:05,VALID,1002.4,VALID,0,VALID,87.588,VALID,0,VALID,24.8527,VALID,207,VALID,0.811328,
2011-05-17, 01:02:05,VALID,1002.36,VALID,0,VALID,87.0921,VALID,0,VALID,24.8722,VALID,190,VALID,1.86875,
2011-05-17, 01:03:05,VALID,1002.34,VALID,0,VALID,86.9166,VALID,0,VALID,24.8722,VALID,213,VALID,1.84141,
2011-05-17, 01:04:05,VALID,1002.32,VALID,0,VALID,86.8709,VALID,0,VALID,24.8508,VALID,218,VALID,0.982031,
2011-05-17, 01:05:05,VALID,1002.3,VALID,0,VALID,86.9777,VALID,0,VALID,24.8917,VALID,220,VALID,1.28906,
2011-05-17, 01:06:05,VALID,1002.28,VALID,0,VALID,86.9014,VALID,0,VALID,24.8917,VALID,237,VALID,0.499219,
2011-05-17, 01:07:05,VALID,1002.23,VALID,0,VALID,86.7106,VALID,0,VALID,24.8508,VALID,217,VALID,1.58711,
2011-05-17, 01:08:05,VALID,1002.22,VALID,0,VALID,86.4894,VALID,0,VALID,24.8917,VALID,223,VALID,1.19453,
2011-05-17, 01:09:05,VALID,1002.21,VALID,0,VALID,86.4283,VALID,0,VALID,24.8703,VALID,225,VALID,0.703906,
2011-05-17, 01:10:05,VALID,1002.22,VALID,0,VALID,86.2452,VALID,0,VALID,24.8917,VALID,190,VALID,0.757813,
2011-05-17, 01:11:05,VALID,1002.22,VALID,0,VALID,86.352,VALID,0,VALID,24.8722,VALID,211,VALID,1.24336,
2011-05-17, 01:12:05,VALID,1002.26,VALID,0,VALID,86.4436,VALID,0,VALID,24.8917,VALID,206,VALID,1.02188,
2011-05-17, 01:13:05,VALID,1002.22,VALID,0,VALID,86.5351,VALID,0,VALID,24.8527,VALID,197,VALID,1.31094,
2011-05-17, 01:14:05,VALID,1002.26,VALID,0,VALID,86.4436,VALID,0,VALID,24.8527,VALID,205,VALID,1.59219,
2011-05-17, 01:15:05,VALID,1002.27,VALID,0,VALID,86.3292,VALID,0,VALID,24.8527,VALID,236,VALID,1.38398,
2011-05-17, 01:16:05,VALID,1002.26,VALID,0,VALID,86.291,VALID,0,VALID,24.8527,VALID,210,VALID,1.15391,
2011-05-17, 01:17:05,VALID,1002.3,VALID,0,VALID,86.291,VALID,0,VALID,24.8527,VALID,251,VALID,0.9125,
2011-05-17, 01:18:05,VALID,1002.28,VALID,0,VALID,86.291,VALID,0,VALID,24.8527,VALID,249,VALID,0.902734,
2011-05-17, 01:19:05,VALID,1002.25,VALID,0,VALID,86.3292,VALID,0,VALID,24.8527,VALID,223,VALID,1.41328,
2011-05-17, 01:20:05,VALID,1002.27,VALID,0,VALID,86.2147,VALID,0,VALID,24.8332,VALID,221,VALID,0.747656,
2011-05-17, 01:21:05,VALID,1002.22,VALID,0,VALID,86.2605,VALID,0,VALID,24.8332,VALID,232,VALID,0.389062,
2011-05-17, 01:22:05,VALID,1002.19,VALID,0,VALID,86.3139,VALID,0,VALID,24.7727,VALID,232,VALID,0,
2011-05-17, 01:23:05,VALID,1002.19,VALID,0,VALID,86.4436,VALID,0,VALID,24.7746,VALID,232,VALID,0,
2011-05-17, 01:24:05,VALID,1002.16,VALID,0,VALID,86.4741,VALID,0,VALID,24.7551,VALID,232,VALID,0,
2011-05-17, 01:25:05,VALID,1002.12,VALID,0,VALID,86.6877,VALID,0,VALID,24.716,VALID,231,VALID,0.107422,
2011-05-17, 01:26:05,VALID,1002.12,VALID,0,VALID,86.8403,VALID,0,VALID,24.677,VALID,232,VALID,0.05,
2011-05-17, 01:27:05,VALID,1002.09,VALID,0,VALID,86.9777,VALID,0,VALID,24.677,VALID,120,VALID,0.970703,
2011-05-17, 01:28:05,VALID,1002.06,VALID,0,VALID,87.1608,VALID,0,VALID,24.638,VALID,130,VALID,0.971094,
2011-05-17, 01:29:05,VALID,1002.05,VALID,0,VALID,87.2752,VALID,0,VALID,24.5989,VALID,146,VALID,0.758203,
2011-05-17, 01:30:05,VALID,1002.05,VALID,0,VALID,87.3668,VALID,0,VALID,24.5794,VALID,133,VALID,0.948047,
2011-05-17, 01:31:05,VALID,1002.09,VALID,0,VALID,87.4965,VALID,0,VALID,24.5599,VALID,130,VALID,0.629297,
2011-05-17, 01:32:05,VALID,1002.06,VALID,0,VALID,87.7177,VALID,0,VALID,24.4995,VALID,130,VALID,0.893359,
2011-05-17, 01:33:05,VALID,1002.1,VALID,0,VALID,87.8703,VALID,0,VALID,24.4604,VALID,130,VALID,0.632422,
2011-05-17, 01:34:05,VALID,1002.13,VALID,0,VALID,88.0458,VALID,0,VALID,24.4623,VALID,130,VALID,0.591797,
2011-05-17, 01:35:05,VALID,1002.11,VALID,0,VALID,88.1145,VALID,0,VALID,24.4428,VALID,130,VALID,0.446484,
2011-05-17, 01:36:05,VALID,1002.1,VALID,0,VALID,88.3129,VALID,0,VALID,24.4428,VALID,126,VALID,0.685156,
2011-05-17, 01:37:05,VALID,1002.11,VALID,0,VALID,88.5265,VALID,0,VALID,24.4428,VALID,114,VALID,0.527734,
2011-05-17, 01:38:05,VALID,1002.08,VALID,0,VALID,88.5799,VALID,0,VALID,24.4233,VALID,114,VALID,0.264453,
2011-05-17, 01:39:05,VALID,1002.08,VALID,0,VALID,88.6486,VALID,0,VALID,24.4019,VALID,114,VALID,0,
2011-05-17, 01:40:05,VALID,1002.12,VALID,0,VALID,88.6943,VALID,0,VALID,24.3842,VALID,114,VALID,0.119531,
2011-05-17, 01:41:05,VALID,1002.09,VALID,0,VALID,88.8393,VALID,0,VALID,24.3842,VALID,114,VALID,0,
2011-05-17, 01:42:05,VALID,1002.09,VALID,0,VALID,88.8851,VALID,0,VALID,24.3842,VALID,114,VALID,0,
2011-05-17, 01:43:05,VALID,1002.07,VALID,0,VALID,88.969,VALID,0,VALID,24.3842,VALID,114,VALID,0.0839844,
2011-05-17, 01:44:05,VALID,1002.06,VALID,0,VALID,89.0682,VALID,0,VALID,24.3842,VALID,114,VALID,0.40625,
2011-05-17, 01:45:05,VALID,1002.05,VALID,0,VALID,89.175,VALID,0,VALID,24.4233,VALID,114,VALID,0.194531,
2011-05-17, 01:46:05,VALID,1002.01,VALID,0,VALID,89.1521,VALID,0,VALID,24.4623,VALID,205,VALID,0.666016,
2011-05-17, 01:47:05,VALID,1002.01,VALID,0,VALID,88.9461,VALID,0,VALID,24.5013,VALID,242,VALID,0.598437,
2011-05-17, 01:48:05,VALID,1001.98,VALID,0,VALID,88.7096,VALID,0,VALID,24.5404,VALID,241,VALID,0.442578,
2011-05-17, 01:49:05,VALID,1001.97,VALID,0,VALID,88.618,VALID,0,VALID,24.5599,VALID,241,VALID,0.389453,
2011-05-17, 01:50:05,VALID,1001.96,VALID,0,VALID,88.6409,VALID,0,VALID,24.558,VALID,241,VALID,0.351563,
2011-05-17, 01:51:05,VALID,1001.96,VALID,0,VALID,88.7401,VALID,0,VALID,24.5794,VALID,241,VALID,0.354688,
2011-05-17, 01:52:05,VALID,1001.97,VALID,0,VALID,88.8088,VALID,0,VALID,24.5599,VALID,241,VALID,0.203906,
2011-05-17, 01:53:05,VALID,1001.95,VALID,0,VALID,88.7935,VALID,0,VALID,24.5404,VALID,241,VALID,0.390234,
2011-05-17, 01:54:05,VALID,1001.97,VALID,0,VALID,88.6333,VALID,0,VALID,24.5404,VALID,308,VALID,0.507813,
2011-05-17, 01:55:05,VALID,1001.93,VALID,0,VALID,88.5875,VALID,0,VALID,24.5404,VALID,303,VALID,0.316406,
2011-05-17, 01:56:05,VALID,1001.89,VALID,0,VALID,88.7477,VALID,0,VALID,24.5404,VALID,303,VALID,0.632422,
2011-05-17, 01:57:05,VALID,1001.88,VALID,0,VALID,89.0377,VALID,0,VALID,24.5013,VALID,303,VALID,0.452344,
2011-05-17, 01:58:05,VALID,1001.83,VALID,0,VALID,89.32,VALID,0,VALID,24.4818,VALID,303,VALID,0.307813,
2011-05-17, 01:59:05,VALID,1001.82,VALID,0,VALID,89.5489,VALID,0,VALID,24.4623,VALID,303,VALID,0.357422,
2011-05-17, 02:00:05,VALID,1001.77,VALID,0,VALID,89.6404,VALID,0,VALID,24.4019,VALID,303,VALID,0.253516,
2011-05-17, 02:01:05,VALID,1001.76,VALID,0,VALID,89.7625,VALID,0,VALID,24.3842,VALID,303,VALID,0.271094,
2011-05-17, 02:02:05,VALID,1001.74,VALID,0,VALID,89.7777,VALID,0,VALID,24.3629,VALID,303,VALID,0.201172,
2011-05-17, 02:03:05,VALID,1001.73,VALID,0,VALID,89.7777,VALID,0,VALID,24.3433,VALID,303,VALID,0.398047,
2011-05-17, 02:04:05,VALID,1001.7,VALID,0,VALID,89.8388,VALID,0,VALID,24.3647,VALID,303,VALID,0.46875,
2011-05-17, 02:05:05,VALID,1001.68,VALID,0,VALID,89.8159,VALID,0,VALID,24.3452,VALID,326,VALID,0.468359,
2011-05-17, 02:06:05,VALID,1001.65,VALID,0,VALID,89.8235,VALID,0,VALID,24.3452,VALID,332,VALID,0.524609,
2011-05-17, 02:07:05,VALID,1001.62,VALID,0,VALID,89.7091,VALID,0,VALID,24.3238,VALID,332,VALID,0.536719,
2011-05-17, 02:08:05,VALID,1001.59,VALID,0,VALID,89.6786,VALID,0,VALID,24.3452,VALID,332,VALID,0.473828,
2011-05-17, 02:09:05,VALID,1001.59,VALID,0,VALID,89.648,VALID,0,VALID,24.3257,VALID,332,VALID,0.355859,
2011-05-17, 02:10:05,VALID,1001.54,VALID,0,VALID,89.5946,VALID,0,VALID,24.3062,VALID,332,VALID,0.233203,
2011-05-17, 02:11:05,VALID,1001.52,VALID,0,VALID,89.526,VALID,0,VALID,24.3257,VALID,332,VALID,0.271094,
2011-05-17, 02:12:05,VALID,1001.51,VALID,0,VALID,89.5183,VALID,0,VALID,24.3257,VALID,332,VALID,0.255078,
2011-05-17, 02:13:05,VALID,1001.49,VALID,0,VALID,89.4497,VALID,0,VALID,24.3062,VALID,332,VALID,0.0738281,
2011-05-17, 02:14:05,VALID,1001.48,VALID,0,VALID,89.4344,VALID,0,VALID,24.2848,VALID,332,VALID,0,
2011-05-17, 02:15:05,VALID,1001.45,VALID,0,VALID,89.3581,VALID,0,VALID,24.2848,VALID,332,VALID,0,
2011-05-17, 02:16:05,VALID,1001.44,VALID,0,VALID,89.2818,VALID,0,VALID,24.3062,VALID,332,VALID,0,
2011-05-17, 02:17:05,VALID,1001.45,VALID,0,VALID,89.3581,VALID,0,VALID,24.3062,VALID,332,VALID,0.0503906,
2011-05-17, 02:18:05,VALID,1001.47,VALID,0,VALID,89.6175,VALID,0,VALID,24.3257,VALID,113,VALID,0.70625,
2011-05-17, 02:19:05,VALID,1001.45,VALID,0,VALID,89.7167,VALID,0,VALID,24.3043,VALID,113,VALID,0.752734,
2011-05-17, 02:20:05,VALID,1001.47,VALID,0,VALID,89.8083,VALID,0,VALID,24.3043,VALID,113,VALID,0.88125,
2011-05-17, 02:21:05,VALID,1001.49,VALID,0,VALID,89.854,VALID,0,VALID,24.3257,VALID,113,VALID,0.914453,
2011-05-17, 02:22:05,VALID,1001.45,VALID,0,VALID,89.8617,VALID,0,VALID,24.3062,VALID,113,VALID,1.24336,
2011-05-17, 02:23:05,VALID,1001.46,VALID,0,VALID,89.8922,VALID,0,VALID,24.2653,VALID,112,VALID,1.41875,
2011-05-17, 02:24:05,VALID,1001.46,VALID,0,VALID,90.0295,VALID,0,VALID,24.2671,VALID,109,VALID,1.14414,
2011-05-17, 02:25:05,VALID,1001.41,VALID,0,VALID,90.1592,VALID,0,VALID,24.2281,VALID,111,VALID,0.996094,
2011-05-17, 02:26:05,VALID,1001.42,VALID,0,VALID,90.2813,VALID,0,VALID,24.1891,VALID,110,VALID,0.954687,
2011-05-17, 02:27:05,VALID,1001.42,VALID,0,VALID,90.4568,VALID,0,VALID,24.15,VALID,116,VALID,1.14844,
2011-05-17, 02:28:05,VALID,1001.44,VALID,0,VALID,90.5712,VALID,0,VALID,24.1092,VALID,115,VALID,0.812109,
2011-05-17, 02:29:05,VALID,1001.42,VALID,0,VALID,90.6933,VALID,0,VALID,24.0915,VALID,176,VALID,0.801953,
2011-05-17, 02:30:05,VALID,1001.41,VALID,0,VALID,90.7772,VALID,0,VALID,24.0701,INVALID,360,VALID,0.00585938,
2011-05-17, 02:31:05,VALID,1001.41,VALID,0,VALID,90.8459,VALID,0,VALID,24.0311,VALID,208,VALID,0.261719,
2011-05-17, 02:32:05,VALID,1001.4,VALID,0,VALID,90.9222,VALID,0,VALID,24.0311,VALID,207,VALID,0.153516,
2011-05-17, 02:33:05,VALID,1001.43,VALID,0,VALID,90.9832,VALID,0,VALID,24.0525,VALID,207,VALID,0.208594,
2011-05-17, 02:34:05,VALID,1001.43,VALID,0,VALID,91.029,VALID,0,VALID,24.0329,VALID,208,VALID,0.398047,
2011-05-17, 02:35:05,VALID,1001.4,VALID,0,VALID,91.0214,VALID,0,VALID,24.0134,VALID,178,VALID,0.824219,
2011-05-17, 02:36:05,VALID,1001.39,VALID,0,VALID,90.9909,VALID,0,VALID,24.0329,VALID,170,VALID,1.03555,
2011-05-17, 02:37:05,VALID,1001.36,VALID,0,VALID,90.8306,VALID,0,VALID,24.0506,VALID,163,VALID,1.17227,
2011-05-17, 02:38:05,VALID,1001.33,VALID,0,VALID,90.5254,VALID,0,VALID,24.111,VALID,152,VALID,1.26836,
2011-05-17, 02:39:05,VALID,1001.32,VALID,0,VALID,90.3194,VALID,0,VALID,24.15,VALID,150,VALID,1.29453,
2011-05-17, 02:40:05,VALID,1001.31,VALID,0,VALID,90.0524,VALID,0,VALID,24.1696,VALID,145,VALID,0.792578,
2011-05-17, 02:41:05,VALID,1001.28,VALID,0,VALID,90.0753,VALID,0,VALID,24.1891,VALID,155,VALID,0.626953,
2011-05-17, 02:42:05,VALID,1001.25,VALID,0,VALID,90.0982,VALID,0,VALID,24.1677,VALID,155,VALID,0.508984,
2011-05-17, 02:43:05,VALID,1001.24,VALID,0,VALID,90.0677,VALID,0,VALID,24.1677,VALID,155,VALID,0.339844,
2011-05-17, 02:44:05,VALID,1001.19,VALID,0,VALID,89.9303,VALID,0,VALID,24.1482,VALID,152,VALID,0.439453,
2011-05-17, 02:45:05,VALID,1001.18,VALID,0,VALID,89.7854,VALID,0,VALID,24.1482,VALID,141,VALID,0.817578,
2011-05-17, 02:46:05,VALID,1001.14,VALID,0,VALID,89.7777,VALID,0,VALID,24.15,VALID,129,VALID,1.30156,
2011-05-17, 02:47:05,VALID,1001.15,VALID,0,VALID,89.7243,VALID,0,VALID,24.1482,VALID,129,VALID,0.666016,
2011-05-17, 02:48:05,VALID,1001.16,VALID,0,VALID,89.4573,VALID,0,VALID,24.1677,VALID,59,VALID,0.627734,
2011-05-17, 02:49:05,VALID,1001.12,VALID,0,VALID,89.2132,VALID,0,VALID,24.1482,VALID,59,VALID,0.471484,
2011-05-17, 02:50:05,VALID,1001.11,VALID,0,VALID,89.1674,VALID,0.112286,VALID,24.1287,VALID,59,VALID,0.123828,
2011-05-17, 02:51:05,VALID,1001.08,VALID,0,VALID,89.1521,VALID,0,VALID,24.1092,VALID,116,VALID,0.916406,
2011-05-17, 02:52:05,VALID,1001.03,VALID,0,VALID,89.5794,VALID,0,VALID,24.1287,VALID,96,VALID,1.39414,
2011-05-17, 02:53:05,VALID,1001.01,VALID,0,VALID,89.648,VALID,0,VALID,24.1677,VALID,59,VALID,1.02695,
2011-05-17, 02:54:05,VALID,1000.97,VALID,0,VALID,89.4726,VALID,0,VALID,24.1677,VALID,71,VALID,1.40977,
2011-05-17, 02:55:05,VALID,1001.01,VALID,0,VALID,89.4344,VALID,0,VALID,24.1696,VALID,42,VALID,0.767578,
2011-05-17, 02:56:05,VALID,1001,VALID,0,VALID,89.3123,VALID,0,VALID,24.15,VALID,32,VALID,0.842188,
2011-05-17, 02:57:05,VALID,1000.97,VALID,0,VALID,89.3047,VALID,0,VALID,24.1092,VALID,35,VALID,0.990234,
2011-05-17, 02:58:05,VALID,1000.99,VALID,0,VALID,89.2666,VALID,0,VALID,24.0701,VALID,30,VALID,1.01797,
2011-05-17, 02:59:05,VALID,1000.99,VALID,0,VALID,89.2818,VALID,0,VALID,24.072,VALID,340,VALID,1.00469,
2011-05-17, 03:00:05,VALID,1000.98,VALID,0,VALID,89.4039,VALID,0,VALID,24.0525,VALID,354,VALID,1.28398,
2011-05-17, 03:01:05,VALID,1000.99,VALID,0,VALID,89.5412,VALID,0,VALID,24.0134,VALID,35,VALID,1.57383,
2011-05-17, 03:02:05,VALID,1000.97,VALID,0,VALID,89.7472,VALID,0,VALID,23.9336,VALID,37,VALID,1.61953,
2011-05-17, 03:03:05,VALID,1000.99,VALID,0,VALID,90.1058,VALID,0,VALID,23.9159,VALID,19,VALID,1.62578,
2011-05-17, 03:04:05,VALID,1000.99,VALID,0,VALID,90.5178,VALID,0,VALID,23.8768,VALID,25,VALID,1.26836,
2011-05-17, 03:05:05,VALID,1000.99,VALID,0,VALID,90.8001,VALID,0,VALID,23.8573,VALID,59,VALID,1.69961,
2011-05-17, 03:06:05,VALID,1001,VALID,0,VALID,90.9985,VALID,0,VALID,23.8378,VALID,81,VALID,1.51055,
2011-05-17, 03:07:05,VALID,1000.97,VALID,0,VALID,91.1434,VALID,0,VALID,23.8378,VALID,80,VALID,1.73828,
2011-05-17, 03:08:05,VALID,1000.95,VALID,0,VALID,91.174,VALID,0,VALID,23.8573,VALID,82,VALID,1.56875,
2011-05-17, 03:09:05,VALID,1000.94,VALID,0,VALID,91.1587,VALID,0,VALID,23.8768,VALID,80,VALID,1.2457,
2011-05-17, 03:10:05,VALID,1000.97,VALID,0,VALID,91.1129,VALID,0,VALID,23.8573,VALID,84,VALID,1.32031,
2011-05-17, 03:11:05,VALID,1000.98,VALID,0,VALID,91.0595,VALID,0,VALID,23.8768,VALID,97,VALID,0.919531,
2011-05-17, 03:12:05,VALID,1000.98,VALID,0,VALID,91.029,VALID,0,VALID,23.8555,VALID,110,VALID,1.12383,
2011-05-17, 03:13:05,VALID,1000.98,VALID,0,VALID,90.968,VALID,0,VALID,23.8573,VALID,117,VALID,1.09805,
2011-05-17, 03:14:05,VALID,1000.97,VALID,0,VALID,90.9146,VALID,0,VALID,23.8378,VALID,118,VALID,1.08125,
2011-05-17, 03:15:05,VALID,1000.97,VALID,0,VALID,90.8917,VALID,0,VALID,23.8378,VALID,113,VALID,1.12578,
2011-05-17, 03:16:05,VALID,1000.93,VALID,0,VALID,90.8459,VALID,0,VALID,23.8768,VALID,99,VALID,1.04922,
2011-05-17, 03:17:05,VALID,1000.92,VALID,0,VALID,90.7467,VALID,0,VALID,23.9159,VALID,100,VALID,1.12109,
2011-05-17, 03:18:04,VALID,1000.91,VALID,0,VALID,90.5407,VALID,0,VALID,23.9354,VALID,88,VALID,0.958203,
2011-05-17, 03:19:04,VALID,1000.91,VALID,0,VALID,90.2966,VALID,0,VALID,23.9354,VALID,89,VALID,1.03516,
2011-05-17, 03:20:04,VALID,1000.94,VALID,0,VALID,90.1668,VALID,0,VALID,23.914,VALID,85,VALID,0.752734,
2011-05-17, 03:21:04,VALID,1000.99,VALID,0,VALID,90.1211,VALID,0,VALID,23.914,VALID,73,VALID,0.672656,
2011-05-17, 03:22:04,VALID,1001,VALID,0,VALID,90.1363,VALID,0,VALID,23.9354,VALID,73,VALID,0.503906,
2011-05-17, 03:23:04,VALID,1001.03,VALID,0,VALID,90.2126,VALID,0,VALID,23.9159,VALID,87,VALID,1.17422,
2011-05-17, 03:24:04,VALID,1000.99,VALID,0,VALID,90.3576,VALID,0,VALID,23.914,VALID,81,VALID,1.18828,
2011-05-17, 03:25:04,VALID,1000.99,VALID,0,VALID,90.4186,VALID,0,VALID,23.9159,VALID,77,VALID,0.941016,
2011-05-17, 03:26:04,VALID,1001.01,VALID,0,VALID,90.472,VALID,0,VALID,23.8768,VALID,86,VALID,1.04062,
2011-05-17, 03:27:04,VALID,1000.99,VALID,0,VALID,90.6094,VALID,0,VALID,23.8573,VALID,89,VALID,0.885938,
2011-05-17, 03:28:04,VALID,1000.94,VALID,0,VALID,90.7543,VALID,0,VALID,23.8183,VALID,87,VALID,0.638281,
2011-05-17, 03:29:04,VALID,1000.95,VALID,0,VALID,90.8383,VALID,0,VALID,23.7988,VALID,63,VALID,1.025,
2011-05-17, 03:30:04,VALID,1000.92,VALID,0,VALID,90.9069,VALID,0,VALID,23.7597,VALID,66,VALID,1.08438,
2011-05-17, 03:31:04,VALID,1000.89,VALID,0,VALID,91.0214,VALID,0,VALID,23.7402,VALID,66,VALID,1.14922,
2011-05-17, 03:32:04,VALID,1000.89,VALID,0,VALID,91.0748,VALID,0,VALID,23.7189,VALID,51,VALID,0.780469,
2011-05-17, 03:33:04,VALID,1000.85,VALID,0,VALID,91.1129,VALID,0,VALID,23.7012,VALID,31,VALID,0.925781,
2011-05-17, 03:34:04,VALID,1000.83,VALID,0,VALID,91.0748,VALID,0,VALID,23.6817,VALID,12,VALID,0.997656,
2011-05-17, 03:35:04,VALID,1000.82,VALID,0,VALID,91.0519,VALID,0,VALID,23.6817,VALID,354,VALID,1.34141,
2011-05-17, 03:36:04,VALID,1000.81,VALID,0,VALID,91.029,VALID,0,VALID,23.7012,VALID,8,VALID,1.42344,
2011-05-17, 03:37:04,VALID,1000.81,VALID,0,VALID,90.9222,VALID,0,VALID,23.7402,VALID,17,VALID,1.48594,
2011-05-17, 03:38:04,VALID,1000.78,VALID,0,VALID,90.6704,VALID,0,VALID,23.7793,VALID,27,VALID,1.15586,
2011-05-17, 03:39:04,VALID,1000.81,VALID,0,VALID,90.3728,VALID,0,VALID,23.8183,VALID,53,VALID,1.16797,
2011-05-17, 03:40:04,VALID,1000.82,VALID,0,VALID,90.06,VALID,0,VALID,23.8165,VALID,37,VALID,0.592578,
2011-05-17, 03:41:04,VALID,1000.82,VALID,0,VALID,89.9609,VALID,0,VALID,23.8183,VALID,16,VALID,0.763672,
2011-05-17, 03:42:04,VALID,1000.83,VALID,0,VALID,89.9227,VALID,0,VALID,23.7579,VALID,22,VALID,0.863672,
2011-05-17, 03:43:04,VALID,1000.8,VALID,0,VALID,90.0753,VALID,0,VALID,23.7402,VALID,26,VALID,0.673437,
2011-05-17, 03:44:04,VALID,1000.81,VALID,0,VALID,90.205,VALID,0,VALID,23.6994,VALID,20,VALID,0.771875,
2011-05-17, 03:45:04,VALID,1000.79,VALID,0,VALID,90.3728,VALID,0,VALID,23.7012,VALID,20,VALID,0.757813,
2011-05-17, 03:46:04,VALID,1000.78,VALID,0,VALID,90.5254,VALID,0,VALID,23.6994,VALID,26,VALID,0.644922,